Location: Bittkow
(50.3000°N, 19.0000°E)
Time: 02:21:45
(UTC+00:00)

Cosmos 1821 Rocket - Pass Details

Date: 19 September 2020
Orbit: 944 x 1005 km, 82.9° (Epoch: 30 October)

Event Time Altitude Azimuth Distance (km) Brightness Sun altitude
Rises 00:59:41 0° 352° (N) 3,727 7.6 -30.1°
Reaches altitude 10° 01:02:18 10° 356° (N) 2,767 6.9 -29.8°
Maximum altitude 01:08:33 57° 75° (ENE) 1,147 4.5 -29.1°
Enters shadow 01:11:52 27° 143° (SE) 1,762 5.2 -28.8°
